PWSweather.com
Personal Weather Stations
Station Observations
KAZSIERR7
Canyon De Flores, Sierra Vista, AZ 85650

Canyon De FloresSierra Vista, AZ 85650

Lat: 31.5, Lon: -110.26

Elevation: 4645

Station Type: LaCrosse WS-3610 & Boltek Lightning Detector

http://www.lightningring.com/weather/

High Low Average
Temperature 59.5°F15.3°C 29.3°F-1.5°C 43.8°F6.6°C
Dew Point 31.7°F-0.2°C 7.2°F-13.8°C 19.0°F-7.2°C
Winds 9.1 mph 14.6 kmh Calm Calm 1.0 mph S1.6 kmh S
Wind Gusts 19.2 mph30.9 kmh -- 5.0 mph8.0 kmh
Humidity 83% 14% 41%
Pressure 29.93 in1013.5 mb 29.85 in1010.8 mb -
Precipitation 0.06 in1.5 mm - -
Hour Temp Dew Point Humidity Winds Wind Gusts Pressure Precip Precip Rate Daily Precip Total
12:04 AM 44.6°F7.0°C 11.7°F-11.3°C 26% Calm Calm -- 29.91 in1012.9 mb 0.00 in0.0 mm 0.00 in0.0 mm 0.00 in0.0 mm
12:14 AM 44.4°F6.9°C 12.3°F-10.9°C 27% Calm Calm 3.5 mph5.6 kmh 29.91 in1012.9 mb 0.00 in0.0 mm 0.00 in0.0 mm 0.00 in0.0 mm
12:24 AM 44.0°F6.7°C 12.7°F-10.7°C 28% 1.1 mph ENE1.8 kmh ENE 1.1 mph1.8 kmh 29.90 in1012.5 mb 0.00 in0.0 mm 0.00 in0.0 mm 0.00 in0.0 mm
12:33 AM 43.8°F6.6°C 12.6°F-10.8°C 28% 1.3 mph E2.1 kmh E 1.3 mph2.1 kmh 29.90 in1012.5 mb 0.00 in0.0 mm 0.00 in0.0 mm 0.00 in0.0 mm
12:44 AM 43.8°F6.6°C 12.6°F-10.8°C 28% Calm Calm 1.3 mph2.1 kmh 29.90 in1012.5 mb 0.00 in0.0 mm 0.00 in0.0 mm 0.00 in0.0 mm
12:54 AM 43.1°F6.2°C 13.5°F-10.3°C 30% Calm Calm -- 29.90 in1012.5 mb 0.00 in0.0 mm 0.00 in0.0 mm 0.00 in0.0 mm
01:04 AM 42.6°F5.9°C 13.1°F-10.5°C 30% Calm Calm -- 29.90 in1012.5 mb 0.00 in0.0 mm 0.00 in0.0 mm 0.00 in0.0 mm
01:14 AM 42.9°F6.1°C 13.3°F-10.4°C 30% Calm Calm -- 29.89 in1012.2 mb 0.00 in0.0 mm 0.00 in0.0 mm 0.00 in0.0 mm
01:24 AM 42.9°F6.1°C 14.1°F-9.9°C 31% Calm Calm 0.4 mph0.6 kmh 29.91 in1012.9 mb 0.00 in0.0 mm 0.00 in0.0 mm 0.00 in0.0 mm
01:34 AM 42.6°F5.9°C 13.8°F-10.1°C 31% Calm Calm -- 29.91 in1012.9 mb 0.00 in0.0 mm 0.00 in0.0 mm 0.00 in0.0 mm
01:44 AM 42.2°F5.7°C 13.4°F-10.3°C 31% Calm Calm -- 29.90 in1012.5 mb 0.00 in0.0 mm 0.00 in0.0 mm 0.00 in0.0 mm
01:54 AM 42.3°F5.7°C 13.6°F-10.2°C 31% Calm Calm -- 29.90 in1012.5 mb 0.00 in0.0 mm 0.00 in0.0 mm 0.00 in0.0 mm
02:04 AM 42.1°F5.6°C 13.4°F-10.3°C 31% Calm Calm -- 29.89 in1012.2 mb 0.00 in0.0 mm 0.00 in0.0 mm 0.00 in0.0 mm
02:14 AM 41.9°F5.5°C 13.9°F-10.1°C 32% Calm Calm -- 29.89 in1012.2 mb 0.00 in0.0 mm 0.00 in0.0 mm 0.00 in0.0 mm
02:24 AM 41.2°F5.1°C 13.3°F-10.4°C 32% Calm Calm -- 29.89 in1012.2 mb 0.00 in0.0 mm 0.00 in0.0 mm 0.00 in0.0 mm
02:34 AM 41.5°F5.3°C 13.6°F-10.2°C 32% Calm Calm -- 29.88 in1011.9 mb 0.00 in0.0 mm 0.00 in0.0 mm 0.00 in0.0 mm
02:44 AM 41.1°F5.1°C 13.2°F-10.4°C 32% Calm Calm -- 29.88 in1011.9 mb 0.00 in0.0 mm 0.00 in0.0 mm 0.00 in0.0 mm
02:55 AM 40.9°F4.9°C 14.4°F-9.8°C 34% Calm Calm -- 29.88 in1011.9 mb 0.00 in0.0 mm 0.00 in0.0 mm 0.00 in0.0 mm
03:05 AM 39.9°F4.4°C 13.6°F-10.2°C 34% Calm Calm -- 29.88 in1011.9 mb 0.00 in0.0 mm 0.00 in0.0 mm 0.00 in0.0 mm
03:15 AM 38.3°F3.5°C 12.8°F-10.7°C 35% Calm Calm -- 29.88 in1011.9 mb 0.00 in0.0 mm 0.00 in0.0 mm 0.00 in0.0 mm
03:27 AM 37.3°F2.9°C 12.5°F-10.8°C 36% Calm Calm -- 29.88 in1011.9 mb 0.00 in0.0 mm 0.00 in0.0 mm 0.00 in0.0 mm
03:39 AM 35.8°F2.1°C 12.5°F-10.8°C 38% Calm Calm -- 29.87 in1011.5 mb 0.00 in0.0 mm 0.00 in0.0 mm 0.00 in0.0 mm
03:49 AM 34.9°F1.6°C 11.6°F-11.3°C 38% Calm Calm 1.7 mph2.7 kmh 29.88 in1011.9 mb 0.00 in0.0 mm 0.00 in0.0 mm 0.00 in0.0 mm
03:59 AM 34.2°F1.2°C 11.6°F-11.3°C 39% Calm Calm -- 29.88 in1011.9 mb 0.00 in0.0 mm 0.00 in0.0 mm 0.00 in0.0 mm
04:09 AM 33.5°F0.8°C 10.9°F-11.7°C 39% Calm Calm -- 29.88 in1011.9 mb 0.00 in0.0 mm 0.00 in0.0 mm 0.00 in0.0 mm
04:19 AM 33.2°F0.7°C 10.7°F-11.8°C 39% Calm Calm 1.7 mph2.7 kmh 29.88 in1011.9 mb 0.00 in0.0 mm 0.00 in0.0 mm 0.00 in0.0 mm
04:29 AM 32.6°F0.3°C 10.2°F-12.1°C 39% Calm Calm 1.7 mph2.7 kmh 29.87 in1011.5 mb 0.00 in0.0 mm 0.00 in0.0 mm 0.00 in0.0 mm
04:39 AM 32.1°F0.1°C 10.2°F-12.1°C 40% Calm Calm -- 29.87 in1011.5 mb 0.00 in0.0 mm 0.00 in0.0 mm 0.00 in0.0 mm
04:49 AM 32.1°F0.1°C 10.3°F-12.1°C 40% Calm Calm -- 29.87 in1011.5 mb 0.00 in0.0 mm 0.00 in0.0 mm 0.00 in0.0 mm
04:59 AM 32.9°F0.5°C 10.4°F-12.0°C 39% Calm Calm -- 29.87 in1011.5 mb 0.00 in0.0 mm 0.00 in0.0 mm 0.00 in0.0 mm
05:09 AM 32.1°F0.1°C 10.3°F-12.1°C 40% Calm Calm -- 29.88 in1011.9 mb 0.00 in0.0 mm 0.00 in0.0 mm 0.00 in0.0 mm
05:19 AM 31.5°F-0.3°C 10.3°F-12.1°C 41% Calm Calm -- 29.88 in1011.9 mb 0.00 in0.0 mm 0.00 in0.0 mm 0.00 in0.0 mm
05:29 AM 31.8°F-0.1°C 10.0°F-12.2°C 40% Calm Calm -- 29.88 in1011.9 mb 0.00 in0.0 mm 0.00 in0.0 mm 0.00 in0.0 mm
05:39 AM 31.4°F-0.3°C 10.2°F-12.1°C 41% Calm Calm -- 29.88 in1011.9 mb 0.00 in0.0 mm 0.00 in0.0 mm 0.00 in0.0 mm
05:49 AM 30.7°F-0.7°C 9.6°F-12.4°C 41% Calm Calm -- 29.88 in1011.9 mb 0.00 in0.0 mm 0.00 in0.0 mm 0.00 in0.0 mm
05:59 AM 29.9°F-1.2°C 9.4°F-12.6°C 42% Calm Calm -- 29.89 in1012.2 mb 0.00 in0.0 mm 0.00 in0.0 mm 0.00 in0.0 mm
06:09 AM 29.3°F-1.5°C 8.9°F-12.8°C 42% Calm Calm -- 29.89 in1012.2 mb 0.00 in0.0 mm 0.00 in0.0 mm 0.00 in0.0 mm
06:20 AM 30.3°F-0.9°C 9.3°F-12.6°C 41% Calm Calm -- 29.89 in1012.2 mb 0.00 in0.0 mm 0.00 in0.0 mm 0.00 in0.0 mm
06:29 AM 30.4°F-0.9°C 9.8°F-12.3°C 42% Calm Calm -- 29.89 in1012.2 mb 0.00 in0.0 mm 0.00 in0.0 mm 0.00 in0.0 mm
06:40 AM 30.5°F-0.8°C 9.9°F-12.3°C 42% Calm Calm -- 29.90 in1012.5 mb 0.00 in0.0 mm 0.00 in0.0 mm 0.00 in0.0 mm
06:50 AM 30.2°F-1.0°C 9.7°F-12.4°C 42% Calm Calm 0.6 mph1.0 kmh 29.90 in1012.5 mb 0.00 in0.0 mm 0.00 in0.0 mm 0.00 in0.0 mm
07:00 AM 30.0°F-1.1°C 9.5°F-12.5°C 42% Calm Calm -- 29.89 in1012.2 mb 0.00 in0.0 mm 0.00 in0.0 mm 0.00 in0.0 mm
07:10 AM 29.4°F-1.4°C 9.5°F-12.5°C 43% Calm Calm -- 29.90 in1012.5 mb 0.00 in0.0 mm 0.00 in0.0 mm 0.00 in0.0 mm
07:20 AM 30.0°F-1.1°C 8.9°F-12.8°C 41% Calm Calm 0.8 mph1.3 kmh 29.89 in1012.2 mb 0.00 in0.0 mm 0.00 in0.0 mm 0.00 in0.0 mm
07:30 AM 29.6°F-1.3°C 9.1°F-12.7°C 42% Calm Calm -- 29.90 in1012.5 mb 0.00 in0.0 mm 0.00 in0.0 mm 0.00 in0.0 mm
07:40 AM 38.2°F3.4°C 12.7°F-10.7°C 35% Calm Calm -- 29.90 in1012.5 mb 0.00 in0.0 mm 0.00 in0.0 mm 0.00 in0.0 mm
07:51 AM 41.1°F5.1°C 11.0°F-11.7°C 29% Calm Calm -- 29.91 in1012.9 mb 0.00 in0.0 mm 0.00 in0.0 mm 0.00 in0.0 mm
08:01 AM 44.0°F6.7°C 12.8°F-10.7°C 28% Calm Calm 1.3 mph2.1 kmh 29.91 in1012.9 mb 0.00 in0.0 mm 0.00 in0.0 mm 0.00 in0.0 mm
08:11 AM 46.3°F7.9°C 13.1°F-10.5°C 26% Calm Calm -- 29.90 in1012.5 mb 0.00 in0.0 mm 0.00 in0.0 mm 0.00 in0.0 mm
08:21 AM 49.2°F9.6°C 12.8°F-10.7°C 23% Calm Calm -- 29.91 in1012.9 mb 0.00 in0.0 mm 0.00 in0.0 mm 0.00 in0.0 mm
08:31 AM 48.1°F8.9°C 10.9°F-11.7°C 22% Calm Calm -- 29.91 in1012.9 mb 0.00 in0.0 mm 0.00 in0.0 mm 0.00 in0.0 mm
08:41 AM 49.0°F9.4°C 12.7°F-10.7°C 23% Calm Calm -- 29.91 in1012.9 mb 0.00 in0.0 mm 0.00 in0.0 mm 0.00 in0.0 mm
08:51 AM 46.3°F7.9°C 11.3°F-11.5°C 24% Calm Calm 5.3 mph8.5 kmh 29.92 in1013.2 mb 0.00 in0.0 mm 0.00 in0.0 mm 0.00 in0.0 mm
09:01 AM 49.9°F9.9°C 10.3°F-12.1°C 20% 2.0 mph ESE3.2 kmh ESE 2.0 mph3.2 kmh 29.93 in1013.5 mb 0.00 in0.0 mm 0.00 in0.0 mm 0.00 in0.0 mm
09:11 AM 49.6°F9.8°C 8.9°F-12.8°C 19% 2.0 mph ESE3.2 kmh ESE 4.6 mph7.4 kmh 29.92 in1013.2 mb 0.00 in0.0 mm 0.00 in0.0 mm 0.00 in0.0 mm
09:21 AM 50.5°F10.3°C 7.2°F-13.8°C 17% Calm Calm 2.0 mph3.2 kmh 29.92 in1013.2 mb 0.00 in0.0 mm 0.00 in0.0 mm 0.00 in0.0 mm
09:31 AM 55.0°F12.8°C 8.1°F-13.3°C 15% 1.1 mph NNE1.8 kmh NNE 1.1 mph1.8 kmh 29.92 in1013.2 mb 0.00 in0.0 mm 0.00 in0.0 mm 0.00 in0.0 mm
09:41 AM 54.1°F12.3°C 10.2°F-12.1°C 17% Calm Calm 4.4 mph7.1 kmh 29.93 in1013.5 mb 0.00 in0.0 mm 0.00 in0.0 mm 0.00 in0.0 mm
09:51 AM 58.2°F14.6°C 10.7°F-11.8°C 15% Calm Calm -- 29.93 in1013.5 mb 0.00 in0.0 mm 0.00 in0.0 mm 0.00 in0.0 mm
10:01 AM 59.5°F15.3°C 10.1°F-12.2°C 14% Calm Calm -- 29.92 in1013.2 mb 0.00 in0.0 mm 0.00 in0.0 mm 0.00 in0.0 mm
10:11 AM 55.0°F12.8°C 10.9°F-11.7°C 17% 3.3 mph NE5.3 kmh NE 4.0 mph6.4 kmh 29.92 in1013.2 mb 0.00 in0.0 mm 0.00 in0.0 mm 0.00 in0.0 mm
10:21 AM 55.0°F12.8°C 10.9°F-11.7°C 17% 1.1 mph ENE1.8 kmh ENE 3.3 mph5.3 kmh 29.92 in1013.2 mb 0.00 in0.0 mm 0.00 in0.0 mm 0.00 in0.0 mm
10:31 AM 55.9°F13.3°C 12.9°F-10.6°C 18% 1.6 mph SSE2.6 kmh SSE 2.4 mph3.9 kmh 29.92 in1013.2 mb 0.00 in0.0 mm 0.00 in0.0 mm 0.00 in0.0 mm
10:42 AM 54.1°F12.3°C 16.0°F-8.9°C 22% 3.5 mph S5.6 kmh S 7.8 mph12.6 kmh 29.91 in1012.9 mb 0.00 in0.0 mm 0.00 in0.0 mm 0.00 in0.0 mm
10:52 AM 53.5°F11.9°C 16.5°F-8.6°C 23% 7.0 mph S11.3 kmh S 14.7 mph23.7 kmh 29.91 in1012.9 mb 0.00 in0.0 mm 0.00 in0.0 mm 0.00 in0.0 mm
11:02 AM 53.5°F11.9°C 17.4°F-8.1°C 24% 6.2 mph SE10.0 kmh SE 14.0 mph22.5 kmh 29.91 in1012.9 mb 0.00 in0.0 mm 0.00 in0.0 mm 0.00 in0.0 mm
11:12 AM 53.0°F11.7°C 17.0°F-8.3°C 24% 7.7 mph S12.4 kmh S 18.1 mph29.1 kmh 29.91 in1012.9 mb 0.00 in0.0 mm 0.00 in0.0 mm 0.00 in0.0 mm
11:22 AM 52.5°F11.4°C 16.6°F-8.6°C 24% 6.0 mph S9.7 kmh S 18.5 mph29.8 kmh 29.91 in1012.9 mb 0.00 in0.0 mm 0.00 in0.0 mm 0.00 in0.0 mm
11:32 AM 51.9°F11.1°C 16.1°F-8.8°C 24% 1.7 mph SE2.7 kmh SE 10.2 mph16.4 kmh 29.91 in1012.9 mb 0.00 in0.0 mm 0.00 in0.0 mm 0.00 in0.0 mm
11:42 AM 51.2°F10.7°C 15.5°F-9.2°C 24% 8.9 mph S14.3 kmh S 17.0 mph27.4 kmh 29.90 in1012.5 mb 0.00 in0.0 mm 0.00 in0.0 mm 0.00 in0.0 mm
11:52 AM 51.2°F10.7°C 15.5°F-9.2°C 24% 4.6 mph SSE7.4 kmh SSE 18.7 mph30.1 kmh 29.89 in1012.2 mb 0.00 in0.0 mm 0.00 in0.0 mm 0.00 in0.0 mm
12:02 PM 51.2°F10.7°C 15.5°F-9.2°C 24% 6.8 mph S10.9 kmh S 14.9 mph24.0 kmh 29.89 in1012.2 mb 0.00 in0.0 mm 0.00 in0.0 mm 0.00 in0.0 mm
12:12 PM 51.9°F11.1°C 16.1°F-8.8°C 24% 2.4 mph E3.9 kmh E 14.7 mph23.7 kmh 29.89 in1012.2 mb 0.00 in0.0 mm 0.00 in0.0 mm 0.00 in0.0 mm
12:22 PM 52.3°F11.3°C 16.4°F-8.7°C 24% 3.1 mph S5.0 kmh S 10.7 mph17.2 kmh 29.89 in1012.2 mb 0.00 in0.0 mm 0.00 in0.0 mm 0.00 in0.0 mm
12:32 PM 51.7°F10.9°C 15.9°F-8.9°C 24% 4.7 mph SE7.6 kmh SE 9.6 mph15.4 kmh 29.88 in1011.9 mb 0.00 in0.0 mm 0.00 in0.0 mm 0.00 in0.0 mm
12:42 PM 52.3°F11.3°C 15.5°F-9.2°C 23% 3.1 mph ENE5.0 kmh ENE 5.8 mph9.3 kmh 29.88 in1011.9 mb 0.00 in0.0 mm 0.00 in0.0 mm 0.00 in0.0 mm
12:52 PM 51.7°F10.9°C 16.8°F-8.4°C 25% 1.2 mph E1.9 kmh E 4.4 mph7.1 kmh 29.87 in1011.5 mb 0.00 in0.0 mm 0.00 in0.0 mm 0.00 in0.0 mm
01:02 PM 54.4°F12.4°C 18.2°F-7.7°C 24% 4.9 mph S7.9 kmh S 11.6 mph18.7 kmh 29.86 in1011.2 mb 0.00 in0.0 mm 0.00 in0.0 mm 0.00 in0.0 mm
01:12 PM 52.6°F11.4°C 19.4°F-7.0°C 27% 2.8 mph SE4.5 kmh SE 10.9 mph17.5 kmh 29.86 in1011.2 mb 0.00 in0.0 mm 0.00 in0.0 mm 0.00 in0.0 mm
01:22 PM 52.1°F11.2°C 18.9°F-7.3°C 27% 5.8 mph SSE9.3 kmh SSE 16.3 mph26.2 kmh 29.86 in1011.2 mb 0.00 in0.0 mm 0.00 in0.0 mm 0.00 in0.0 mm
01:32 PM 50.8°F10.4°C 19.5°F-6.9°C 29% 6.4 mph E10.3 kmh E 13.8 mph22.2 kmh 29.85 in1010.8 mb 0.00 in0.0 mm 0.00 in0.0 mm 0.00 in0.0 mm
01:43 PM 52.8°F11.6°C 20.4°F-6.4°C 28% 2.0 mph S3.2 kmh S 14.0 mph22.5 kmh 29.86 in1011.2 mb 0.00 in0.0 mm 0.00 in0.0 mm 0.00 in0.0 mm
01:53 PM 52.1°F11.2°C 19.8°F-6.8°C 28% 7.4 mph ESE11.9 kmh ESE 13.8 mph22.2 kmh 29.85 in1010.8 mb 0.00 in0.0 mm 0.00 in0.0 mm 0.00 in0.0 mm
02:03 PM 54.4°F12.4°C 20.0°F-6.7°C 26% 1.9 mph E3.1 kmh E 12.0 mph19.3 kmh 29.85 in1010.8 mb 0.00 in0.0 mm 0.00 in0.0 mm 0.00 in0.0 mm
02:13 PM 56.4°F13.6°C 20.8°F-6.2°C 25% 1.8 mph SSE2.9 kmh SSE 4.2 mph6.8 kmh 29.85 in1010.8 mb 0.00 in0.0 mm 0.00 in0.0 mm 0.00 in0.0 mm
02:23 PM 57.1°F13.9°C 20.5°F-6.4°C 24% 0.4 mph WSW0.6 kmh WSW 19.2 mph30.9 kmh 29.85 in1010.8 mb 0.00 in0.0 mm 0.00 in0.0 mm 0.00 in0.0 mm
02:33 PM 59.5°F15.3°C 21.5°F-5.8°C 23% 2.1 mph WSW3.4 kmh WSW 16.1 mph25.9 kmh 29.85 in1010.8 mb 0.00 in0.0 mm 0.00 in0.0 mm 0.00 in0.0 mm
02:43 PM 56.2°F13.4°C 20.7°F-6.3°C 25% Calm Calm 12.3 mph19.8 kmh 29.85 in1010.8 mb 0.00 in0.0 mm 0.00 in0.0 mm 0.00 in0.0 mm
02:53 PM 55.9°F13.3°C 22.2°F-5.4°C 27% 2.1 mph WSW3.4 kmh WSW 4.0 mph6.4 kmh 29.85 in1010.8 mb 0.00 in0.0 mm 0.00 in0.0 mm 0.00 in0.0 mm
03:03 PM 55.9°F13.3°C 21.3°F-5.9°C 26% 1.0 mph WNW1.6 kmh WNW 5.1 mph8.2 kmh 29.85 in1010.8 mb 0.00 in0.0 mm 0.00 in0.0 mm 0.00 in0.0 mm
03:13 PM 55.2°F12.9°C 21.6°F-5.8°C 27% Calm Calm 2.6 mph4.2 kmh 29.85 in1010.8 mb 0.00 in0.0 mm 0.00 in0.0 mm 0.00 in0.0 mm
03:23 PM 53.7°F12.1°C 21.2°F-6.0°C 28% 0.4 mph S0.6 kmh S 1.3 mph2.1 kmh 29.85 in1010.8 mb 0.00 in0.0 mm 0.00 in0.0 mm 0.00 in0.0 mm
03:33 PM 52.8°F11.6°C 22.0°F-5.6°C 30% 3.9 mph S6.3 kmh S 5.5 mph8.9 kmh 29.86 in1011.2 mb 0.00 in0.0 mm 0.00 in0.0 mm 0.00 in0.0 mm
03:43 PM 51.7°F10.9°C 24.0°F-4.4°C 34% 0.2 mph W0.3 kmh W 14.9 mph24.0 kmh 29.86 in1011.2 mb 0.00 in0.0 mm 0.00 in0.0 mm 0.00 in0.0 mm
03:53 PM 51.2°F10.7°C 22.8°F-5.1°C 33% 0.8 mph WSW1.3 kmh WSW 13.4 mph21.6 kmh 29.86 in1011.2 mb 0.00 in0.0 mm 0.00 in0.0 mm 0.00 in0.0 mm
04:03 PM 50.8°F10.4°C 23.9°F-4.5°C 35% 5.7 mph S9.2 kmh S 13.8 mph22.2 kmh 29.86 in1011.2 mb 0.00 in0.0 mm 0.00 in0.0 mm 0.00 in0.0 mm
04:13 PM 50.1°F10.1°C 23.9°F-4.5°C 36% Calm Calm 15.2 mph24.5 kmh 29.86 in1011.2 mb 0.00 in0.0 mm 0.00 in0.0 mm 0.00 in0.0 mm
04:23 PM 50.1°F10.1°C 23.9°F-4.5°C 36% Calm Calm 0.6 mph1.0 kmh 29.86 in1011.2 mb 0.00 in0.0 mm 0.00 in0.0 mm 0.00 in0.0 mm
04:33 PM 49.4°F9.7°C 25.9°F-3.4°C 40% 1.3 mph SSW2.1 kmh SSW 3.5 mph5.6 kmh 29.86 in1011.2 mb 0.00 in0.0 mm 0.00 in0.0 mm 0.00 in0.0 mm
04:44 PM 48.7°F9.3°C 26.5°F-3.1°C 42% 4.5 mph SSW7.2 kmh SSW 14.0 mph22.5 kmh 29.87 in1011.5 mb 0.00 in0.0 mm 0.00 in0.0 mm 0.00 in0.0 mm
04:54 PM 47.2°F8.4°C 28.4°F-2.0°C 48% 9.1 mph S14.6 kmh S 15.6 mph25.1 kmh 29.87 in1011.5 mb 0.00 in0.0 mm 0.00 in0.0 mm 0.00 in0.0 mm
05:03 PM 45.8°F7.7°C 31.0°F-0.6°C 56% 3.2 mph SSW5.1 kmh SSW 12.7 mph20.4 kmh 29.88 in1011.9 mb 0.00 in0.0 mm 0.00 in0.0 mm 0.00 in0.0 mm
05:14 PM 44.7°F7.1°C 30.4°F-0.9°C 57% 2.5 mph S4.0 kmh S 15.4 mph24.8 kmh 29.88 in1011.9 mb 0.00 in0.0 mm 0.00 in0.0 mm 0.00 in0.0 mm
05:24 PM 45.1°F7.3°C 30.4°F-0.9°C 56% 2.9 mph S4.7 kmh S 4.4 mph7.1 kmh 29.87 in1011.5 mb 0.00 in0.0 mm 0.00 in0.0 mm 0.00 in0.0 mm
05:34 PM 44.5°F6.9°C 30.7°F-0.7°C 58% 0.2 mph E0.3 kmh E 2.9 mph4.7 kmh 29.87 in1011.5 mb 0.00 in0.0 mm 0.00 in0.0 mm 0.00 in0.0 mm
05:44 PM 44.5°F6.9°C 30.7°F-0.7°C 58% Calm Calm -- 29.87 in1011.5 mb 0.00 in0.0 mm 0.00 in0.0 mm 0.00 in0.0 mm
05:54 PM 44.5°F6.9°C 30.7°F-0.7°C 58% 1.7 mph S2.7 kmh S 2.9 mph4.7 kmh 29.88 in1011.9 mb 0.00 in0.0 mm 0.00 in0.0 mm 0.00 in0.0 mm
06:04 PM 44.5°F6.9°C 30.7°F-0.7°C 58% Calm Calm 1.7 mph2.7 kmh 29.88 in1011.9 mb 0.00 in0.0 mm 0.00 in0.0 mm 0.00 in0.0 mm
06:14 PM 44.5°F6.9°C 30.7°F-0.7°C 58% Calm Calm 0.4 mph0.6 kmh 29.87 in1011.5 mb 0.00 in0.0 mm 0.00 in0.0 mm 0.00 in0.0 mm
06:24 PM 44.5°F6.9°C 30.7°F-0.7°C 58% 0.4 mph SE0.6 kmh SE 2.2 mph3.5 kmh 29.87 in1011.5 mb 0.00 in0.0 mm 0.00 in0.0 mm 0.00 in0.0 mm
06:34 PM 44.2°F6.8°C 30.4°F-0.9°C 58% 1.9 mph W3.1 kmh W 2.0 mph3.2 kmh 29.88 in1011.9 mb 0.00 in0.0 mm 0.00 in0.0 mm 0.00 in0.0 mm
06:44 PM 44.2°F6.8°C 24.1°F-4.4°C 45% 4.4 mph WNW7.1 kmh WNW 4.4 mph7.1 kmh 29.88 in1011.9 mb 0.00 in0.0 mm 0.00 in0.0 mm 0.00 in0.0 mm
06:54 PM 44.5°F6.9°C 20.9°F-6.2°C 39% 4.0 mph NW6.4 kmh NW 4.4 mph7.1 kmh 29.89 in1012.2 mb 0.00 in0.0 mm 0.00 in0.0 mm 0.00 in0.0 mm
07:04 PM 43.6°F6.4°C 23.6°F-4.7°C 45% Calm Calm 4.2 mph6.8 kmh 29.90 in1012.5 mb 0.00 in0.0 mm 0.00 in0.0 mm 0.00 in0.0 mm
07:14 PM 42.8°F6.0°C 28.7°F-1.8°C 57% Calm Calm 1.7 mph2.7 kmh 29.90 in1012.5 mb 0.00 in0.0 mm 0.00 in0.0 mm 0.00 in0.0 mm
07:24 PM 40.8°F4.9°C 29.7°F-1.3°C 64% 2.9 mph S4.7 kmh S 2.9 mph4.7 kmh 29.90 in1012.5 mb 0.00 in0.0 mm 0.00 in0.0 mm 0.00 in0.0 mm
07:34 PM 39.6°F4.2°C 30.7°F-0.7°C 70% 2.9 mph WSW4.7 kmh WSW 2.9 mph4.7 kmh 29.90 in1012.5 mb 0.00 in0.0 mm 0.00 in0.0 mm 0.00 in0.0 mm
07:44 PM 38.6°F3.7°C 29.4°F-1.4°C 69% 3.8 mph W6.1 kmh W 3.8 mph6.1 kmh 29.89 in1012.2 mb 0.00 in0.0 mm 0.00 in0.0 mm 0.00 in0.0 mm
07:55 PM 38.9°F3.8°C 29.6°F-1.3°C 69% 3.0 mph WSW4.8 kmh WSW 3.8 mph6.1 kmh 29.89 in1012.2 mb 0.00 in0.0 mm 0.00 in0.0 mm 0.00 in0.0 mm
08:05 PM 39.2°F4.0°C 28.5°F-1.9°C 65% Calm Calm 3.8 mph6.1 kmh 29.89 in1012.2 mb 0.00 in0.0 mm 0.00 in0.0 mm 0.00 in0.0 mm
08:15 PM 39.6°F4.2°C 26.5°F-3.1°C 59% 3.3 mph WSW5.3 kmh WSW 3.3 mph5.3 kmh 29.89 in1012.2 mb 0.00 in0.0 mm 0.00 in0.0 mm 0.00 in0.0 mm
08:25 PM 40.0°F4.4°C 26.1°F-3.3°C 57% 0.4 mph W0.6 kmh W 3.3 mph5.3 kmh 29.88 in1011.9 mb 0.00 in0.0 mm 0.00 in0.0 mm 0.00 in0.0 mm
08:35 PM 40.1°F4.5°C 28.6°F-1.9°C 63% Calm Calm 0.4 mph0.6 kmh 29.88 in1011.9 mb 0.00 in0.0 mm 0.00 in0.0 mm 0.00 in0.0 mm
08:45 PM 40.2°F4.6°C 29.4°F-1.4°C 65% Calm Calm -- 29.88 in1011.9 mb 0.00 in0.0 mm 0.00 in0.0 mm 0.00 in0.0 mm
08:55 PM 40.3°F4.6°C 29.9°F-1.2°C 66% Calm Calm -- 29.89 in1012.2 mb 0.00 in0.0 mm 0.00 in0.0 mm 0.00 in0.0 mm
09:05 PM 40.3°F4.6°C 30.0°F-1.1°C 66% Calm Calm -- 29.90 in1012.5 mb 0.00 in0.0 mm 0.00 in0.0 mm 0.00 in0.0 mm
09:15 PM 41.0°F5.0°C 31.3°F-0.4°C 68% Calm Calm 2.0 mph3.2 kmh 29.90 in1012.5 mb 0.00 in0.0 mm 0.00 in0.0 mm 0.00 in0.0 mm
09:25 PM 40.7°F4.8°C 31.7°F-0.2°C 70% Calm Calm -- 29.90 in1012.5 mb 0.00 in0.0 mm 0.00 in0.0 mm 0.00 in0.0 mm
09:35 PM 40.4°F4.7°C 31.4°F-0.3°C 70% Calm Calm -- 29.91 in1012.9 mb 0.00 in0.0 mm 0.00 in0.0 mm 0.00 in0.0 mm
09:45 PM 40.4°F4.7°C 30.4°F-0.9°C 67% 0.8 mph ENE1.3 kmh ENE 3.1 mph5.0 kmh 29.91 in1012.9 mb 0.00 in0.0 mm 0.00 in0.0 mm 0.00 in0.0 mm
09:55 PM 40.2°F4.6°C 30.9°F-0.6°C 69% Calm Calm 1.7 mph2.7 kmh 29.91 in1012.9 mb 0.00 in0.0 mm 0.00 in0.0 mm 0.00 in0.0 mm
10:05 PM 39.6°F4.2°C 30.4°F-0.9°C 69% 4.6 mph NE7.4 kmh NE 10.5 mph16.9 kmh 29.90 in1012.5 mb 0.00 in0.0 mm 0.00 in0.0 mm 0.00 in0.0 mm
10:15 PM 39.6°F4.2°C 30.4°F-0.9°C 69% 4.4 mph NE7.1 kmh NE 4.6 mph7.4 kmh 29.92 in1013.2 mb 0.00 in0.0 mm 0.00 in0.0 mm 0.00 in0.0 mm
10:25 PM 38.4°F3.6°C 30.9°F-0.6°C 74% 6.1 mph NE9.8 kmh NE 15.2 mph24.5 kmh 29.92 in1013.2 mb 0.00 in0.0 mm 0.00 in0.0 mm 0.00 in0.0 mm
10:35 PM 37.7°F3.2°C 30.9°F-0.6°C 76% Calm Calm 15.8 mph25.4 kmh 29.92 in1013.2 mb 0.00 in0.0 mm 0.00 in0.0 mm 0.00 in0.0 mm
10:45 PM 37.4°F3.0°C 31.2°F-0.4°C 78% 2.8 mph NNE4.5 kmh NNE 3.1 mph5.0 kmh 29.92 in1013.2 mb 0.02 in0.5 mm 0.12 in3.0 mm 0.02 in0.5 mm
10:55 PM 37.1°F2.8°C 30.9°F-0.6°C 78% 3.1 mph NNE5.0 kmh NNE 16.5 mph26.6 kmh 29.92 in1013.2 mb 0.04 in1.0 mm 0.12 in3.0 mm 0.04 in1.0 mm
11:05 PM 36.8°F2.7°C 31.2°F-0.4°C 80% 2.8 mph 4.5 kmh 18.5 mph29.8 kmh 29.91 in1012.9 mb 0.04 in1.0 mm 0.00 in0.0 mm 0.04 in1.0 mm
11:16 PM 36.6°F2.6°C 31.3°F-0.4°C 81% 2.6 mph 4.2 kmh 2.6 mph4.2 kmh 29.91 in1012.9 mb 0.04 in1.0 mm 0.00 in0.0 mm 0.04 in1.0 mm
11:26 PM 36.6°F2.6°C 31.7°F-0.2°C 82% Calm Calm 2.2 mph3.5 kmh 29.91 in1012.9 mb 0.06 in1.5 mm 0.12 in3.0 mm 0.06 in1.5 mm
11:36 PM 36.5°F2.5°C 31.5°F-0.3°C 82% Calm Calm -- 29.91 in1012.9 mb 0.06 in1.5 mm 0.00 in0.0 mm 0.06 in1.5 mm
11:46 PM 36.2°F2.3°C 31.5°F-0.3°C 83% Calm Calm 2.4 mph3.9 kmh 29.91 in1012.9 mb 0.06 in1.5 mm 0.00 in0.0 mm 0.06 in1.5 mm
11:56 PM 36.2°F2.3°C 31.5°F-0.3°C 83% 3.5 mph W5.6 kmh W 3.5 mph5.6 kmh 29.90 in1012.5 mb 0.06 in1.5 mm 0.00 in0.0 mm 0.06 in1.5 mm